When you browse on this site, cookies collect data to enhance your experience and personalize the content and advertising you see.
Visit our Privacy Policy to learn more. By continuing to use the site, you agree to this use of cookies and data.
  • In Czech Republic
  • List of Countries
  • For 7 days
  • Water Temperature
  • Weather Map
  • Weather Widgets
  • user-avatar
    Login

    Hourly Weather Kangalassy

    Today, 27 May, Wednesday

    Time Temperature Precipitation Wind Pressure Humidity
    00:00 +17°C° 0.1 mm 2 mps 727 mmHg 62%
    01:00 +16°C° 0.1 mm 1 mps 727 mmHg 65%
    02:00 +15°C° 0.1 mm 1 mps 727 mmHg 69%
    03:00 +14°C° 0 mm 1 mps 727 mmHg 74%
    04:00 +16°C° 0 mm 1 mps 727 mmHg 70%
    05:00 +18°C° 0 mm 1 mps 727 mmHg 66%
    06:00 +19°C° 0 mm 1 mps 727 mmHg 62%
    07:00 +21°C° 0.1 mm 1 mps 726 mmHg 55%
    08:00 +23°C° 0.1 mm 2 mps 726 mmHg 47%
    09:00 +25°C° 0.1 mm 2 mps 726 mmHg 40%
    10:00 +26°C° 0 mm 3 mps 726 mmHg 37%
    11:00 +27°C° 0 mm 4 mps 726 mmHg 33%
    12:00 +29°C° 0 mm 4 mps 725 mmHg 30%
    13:00 +28°C° 0 mm 4 mps 725 mmHg 31%
    14:00 +27°C° 0 mm 3 mps 725 mmHg 32%
    15:00 +27°C° 0 mm 3 mps 724 mmHg 33%
    16:00 +27°C° 0 mm 3 mps 724 mmHg 34%
    17:00 +26°C° 0 mm 3 mps 724 mmHg 35%
    18:00 +26°C° 0 mm 2 mps 724 mmHg 36%
    19:00 +24°C° 0.1 mm 2 mps 724 mmHg 44%
    20:00 +21°C° 0.1 mm 2 mps 724 mmHg 52%
    21:00 +18°C° 0.1 mm 2 mps 724 mmHg 60%
    22:00 +17°C° 0.1 mm 2 mps 723 mmHg 64%
    23:00 +16°C° 0.1 mm 2 mps 723 mmHg 68%

    Tomorrow, 28 May, Thursday

    Time Temperature Precipitation Wind Pressure Humidity
    00:00 +15°C° 0.1 mm 2 mps 722 mmHg 72%
    01:00 +14°C° 0 mm 3 mps 722 mmHg 72%
    02:00 +14°C° 0 mm 3 mps 721 mmHg 72%
    03:00 +14°C° 0 mm 3 mps 721 mmHg 72%
    04:00 +15°C° 0 mm 4 mps 721 mmHg 68%
    05:00 +17°C° 0 mm 4 mps 721 mmHg 64%
    06:00 +18°C° 0 mm 4 mps 721 mmHg 60%
    07:00 +19°C° 0 mm 5 mps 721 mmHg 57%
    08:00 +20°C° 0 mm 5 mps 722 mmHg 55%
    09:00 +21°C° 0 mm 5 mps 722 mmHg 52%
    10:00 +20°C° 0.1 mm 5 mps 722 mmHg 54%
    11:00 +20°C° 0.1 mm 4 mps 723 mmHg 57%
    12:00 +19°C° 0.1 mm 4 mps 723 mmHg 59%
    13:00 +17°C° 0.2 mm 5 mps 723 mmHg 60%
    14:00 +16°C° 0.2 mm 5 mps 724 mmHg 61%
    15:00 +16°C° 0.2 mm 5 mps 724 mmHg 62%
    16:00 +15°C° 0 mm 5 mps 724 mmHg 59%
    17:00 +15°C° 0 mm 6 mps 725 mmHg 55%
    18:00 +15°C° 0 mm 6 mps 725 mmHg 51%
    19:00 +13°C° 0 mm 6 mps 726 mmHg 54%
    20:00 +10°C° 0 mm 6 mps 727 mmHg 57%
    21:00 +9°C° 0 mm 6 mps 727 mmHg 60%
    22:00 +7°C° 0.1 mm 6 mps 728 mmHg 66%
    23:00 +4°C° 0.1 mm 6 mps 729 mmHg 71%

    Day after tomorrow, 29 May, Friday

    Time Temperature Precipitation Wind Pressure Humidity
    00:00 +2°C° 0.1 mm 7 mps 729 mmHg 77%
    01:00 +2°C° 0 mm 6 mps 730 mmHg 78%
    02:00 +1°C° 0 mm 6 mps 730 mmHg 78%
    03:00 +1°C° 0 mm 6 mps 730 mmHg 79%
    04:00 +1°C° 0.1 mm 6 mps 731 mmHg 77%
    05:00 +1°C° 0.1 mm 6 mps 732 mmHg 75%
    06:00 +1°C° 0.1 mm 6 mps 732 mmHg 73%
    07:00 +2°C° 0.1 mm 6 mps 732 mmHg 69%
    08:00 +2°C° 0.1 mm 7 mps 733 mmHg 64%
    09:00 +3°C° 0.1 mm 7 mps 733 mmHg 59%
    10:00 +4°C° 0 mm 7 mps 733 mmHg 54%
    11:00 +5°C° 0 mm 7 mps 733 mmHg 50%
    12:00 +5°C° 0 mm 7 mps 734 mmHg 45%
    13:00 +6°C° 0 mm 7 mps 734 mmHg 42%
    14:00 +8°C° 0 mm 7 mps 734 mmHg 39%
    15:00 +8°C° 0 mm 7 mps 734 mmHg 36%
    16:00 +8°C° 0 mm 7 mps 734 mmHg 36%
    17:00 +8°C° 0 mm 6 mps 735 mmHg 35%
    18:00 +8°C° 0 mm 6 mps 735 mmHg 35%
    19:00 +7°C° 0 mm 5 mps 735 mmHg 41%
    20:00 +6°C° 0 mm 4 mps 735 mmHg 46%
    21:00 +5°C° 0 mm 3 mps 736 mmHg 52%
    22:00 +4°C° 0 mm 3 mps 736 mmHg 57%
    23:00 +3°C° 0 mm 3 mps 736 mmHg 62%

    30 May, Saturday

    Time Temperature Precipitation Wind Pressure Humidity
    00:00 +2°C° 0 mm 3 mps 736 mmHg 67%
    01:00 +1°C° 0 mm 3 mps 736 mmHg 69%
    02:00 +1°C° 0 mm 3 mps 736 mmHg 71%
    03:00 +1°C° 0 mm 3 mps 736 mmHg 73%
    04:00 +2°C° 0 mm 3 mps 737 mmHg 68%
    05:00 +3°C° 0 mm 3 mps 737 mmHg 63%
    06:00 +4°C° 0 mm 3 mps 737 mmHg 58%
    07:00 +6°C° 0 mm 4 mps 737 mmHg 51%
    08:00 +7°C° 0 mm 4 mps 737 mmHg 45%
    09:00 +9°C° 0 mm 5 mps 737 mmHg 38%
    10:00 +11°C° 0 mm 4 mps 737 mmHg 36%
    11:00 +12°C° 0 mm 4 mps 737 mmHg 34%
    12:00 +12°C° 0 mm 4 mps 736 mmHg 32%
    13:00 +13°C° 0 mm 4 mps 736 mmHg 32%
    14:00 +13°C° 0 mm 3 mps 736 mmHg 33%
    15:00 +13°C° 0 mm 3 mps 736 mmHg 34%
    16:00 +13°C° 0 mm 3 mps 736 mmHg 36%
    17:00 +14°C° 0 mm 2 mps 736 mmHg 37%
    18:00 +14°C° 0 mm 2 mps 736 mmHg 38%
    19:00 +12°C° 0 mm 2 mps 736 mmHg 46%
    20:00 +10°C° 0 mm 2 mps 736 mmHg 54%
    21:00 +8°C° 0 mm 2 mps 736 mmHg 62%
    22:00 +7°C° 0 mm 2 mps 736 mmHg 68%
    23:00 +6°C° 0 mm 1 mps 736 mmHg 74%

    31 May, Sunday

    Time Temperature Precipitation Wind Pressure Humidity
    00:00 +5°C° 0 mm 1 mps 736 mmHg 80%
    01:00 +5°C° 0 mm 1 mps 736 mmHg 82%
    02:00 +4°C° 0 mm 1 mps 737 mmHg 84%
    03:00 +4°C° 0 mm 1 mps 737 mmHg 86%
    04:00 +4°C° 0 mm 0 mps 737 mmHg 78%
    05:00 +6°C° 0 mm 0 mps 737 mmHg 71%
    06:00 +8°C° 0 mm 0 mps 737 mmHg 63%
    07:00 +10°C° 0 mm 0 mps 737 mmHg 56%
    08:00 +11°C° 0 mm 0 mps 737 mmHg 49%
    09:00 +13°C° 0 mm 0 mps 737 mmHg 43%
    10:00 +14°C° 0 mm 0 mps 737 mmHg 40%
    11:00 +16°C° 0 mm 1 mps 736 mmHg 37%
    12:00 +16°C° 0 mm 1 mps 736 mmHg 35%
    13:00 +16°C° 0.1 mm 1 mps 736 mmHg 35%
    14:00 +16°C° 0.1 mm 1 mps 735 mmHg 35%
    15:00 +16°C° 0.1 mm 1 mps 735 mmHg 35%
    16:00 +16°C° 0 mm 2 mps 735 mmHg 37%
    17:00 +16°C° 0 mm 2 mps 735 mmHg 38%
    18:00 +15°C° 0 mm 2 mps 735 mmHg 40%
    19:00 +14°C° 0.1 mm 2 mps 735 mmHg 50%
    20:00 +12°C° 0.1 mm 2 mps 735 mmHg 59%
    21:00 +9°C° 0.1 mm 2 mps 735 mmHg 69%
    22:00 +8°C° 0.1 mm 2 mps 735 mmHg 73%
    23:00 +8°C° 0.1 mm 1 mps 735 mmHg 77%

    1 June, Monday

    Time Temperature Precipitation Wind Pressure Humidity
    00:00 +7°C° 0.1 mm 1 mps 736 mmHg 82%
    01:00 +7°C° 0 mm 1 mps 736 mmHg 85%
    02:00 +6°C° 0 mm 1 mps 736 mmHg 88%
    03:00 +5°C° 0 mm 2 mps 736 mmHg 91%
    04:00 +7°C° 0.4 mm 1 mps 736 mmHg 91%
    05:00 +8°C° 0.4 mm 1 mps 736 mmHg 90%
    06:00 +9°C° 0.4 mm 1 mps 736 mmHg 90%
    07:00 +10°C° 0.1 mm 1 mps 736 mmHg 84%
    08:00 +11°C° 0.1 mm 1 mps 736 mmHg 77%
    09:00 +12°C° 0.1 mm 2 mps 736 mmHg 71%
    10:00 +14°C° 0.1 mm 2 mps 736 mmHg 61%
    11:00 +16°C° 0.1 mm 2 mps 736 mmHg 50%
    12:00 +18°C° 0.1 mm 2 mps 736 mmHg 40%
    13:00 +18°C° 0 mm 2 mps 736 mmHg 38%
    14:00 +18°C° 0 mm 2 mps 736 mmHg 36%
    15:00 +19°C° 0 mm 2 mps 736 mmHg 33%
    16:00 +19°C° 0 mm 2 mps 736 mmHg 33%
    17:00 +19°C° 0 mm 2 mps 736 mmHg 32%
    18:00 +19°C° 0 mm 2 mps 736 mmHg 32%
    19:00 +17°C° 0 mm 2 mps 736 mmHg 38%
    20:00 +15°C° 0 mm 2 mps 736 mmHg 45%
    21:00 +14°C° 0 mm 2 mps 736 mmHg 51%
    22:00 +12°C° 0 mm 2 mps 737 mmHg 54%
    23:00 +10°C° 0 mm 2 mps 737 mmHg 56%
    Show more